NOAA NWS Hourly Roundups by Site

Regional Weather Roundup for Bismarck, ND

To Select Another Site Choose from List

Select Site:  

000
ASUS43 KBIS 212010
RWRBIS

NWR BROADCAST TEXT
NATIONAL WEATHER SERVICE BISMARCK ND
300 PM CDT SAT APR 21 2018

NOTE: "FAIR" INDICATES FEW OR NO CLOUDS BELOW 12,000 FEET WITH NO
SIGNIFICANT WEATHER AND/OR OBSTRUCTIONS TO VISIBILITY.


CITY           SKY/WX    TMP DP  RH WIND       PRES   REMARKS
WILLISTON      SUNNY     66  39  37 S18G26    30.01F
MINOT          SUNNY     64  38  38 S25G35    30.11F
MINOT AFB      SUNNY     63  41  45 S23G33    30.09F
BISMARCK       SUNNY     62  35  36 S23G35    30.19F
DICKINSON      SUNNY     63  36  36 S25G35    30.07F
GARRISON         N/A     58  39  49 S20       30.12F
HETTINGER ARPT MOSUNNY   58  35  42 S25G32    30.14F
JAMESTOWN      MOSUNNY   61  41  47 S16G29    30.25S
CARRINGTON     MOCLDY    59  43  55 S20G28    30.25S
HAZEN          FAIR      64  37  36 S25G31    30.15S
LINTON           N/A    N/A N/A N/A S21G28    30.23F
MANDAN         FAIR      61  34  36 S25G39    30.18F
OAKES            N/A     59  39  47 SW14G21   30.28F
RUGBY          FAIR      59  41  51 S16G29    30.16F
STANLEY          N/A     61  41  48 S26G33    30.08F HAZE
TIOGA          FAIR      61  45  55 S22G32    30.05F
WATFORD CITY   FAIR      64  39  39 S17G26    30.04F
$$

CITY           SKY/WX    TMP DP  RH WIND       PRES   REMARKS
GRAND FORKS    FAIR      57  44  62 S17G23    30.27F
GRAND FORKS AF FAIR      59  43  56 S16       30.27F
DEVILS LAKE    FAIR      59  40  49 S17       30.23S
FARGO          FAIR      60  39  45 S6G20     30.29F
CANDO          FAIR      63  39  42 S21G28    30.21F
CAVALIER         N/A     63  43  48 S14       30.22S
GRAFTON        FAIR      63  45  51 S17G23    30.26F
GWINNER          N/A     59  39  47 SE9G16    30.28F
LANGDON        FAIR      61  45  55 S22       30.21F
ROLLA          FAIR      57  45  62 S23G31    30.17F
WALHALLA       FAIR      63  41  45 SW12G20   30.21F
$$

CITY           SKY/WX    TMP DP  RH WIND       PRES   REMARKS
ABERDEEN       CLOUDY    59  33  37 S17       30.30F
MOBRIDGE       MOSUNNY   58  38  47 S24G30    30.22F
BUFFALO          N/A     61  34  36 S20G31    30.03F
RAPID CITY     SUNNY     54  37  52 S17G24    30.16F
GLASGOW        SUNNY     71  37  28 S15       29.90F
SIDNEY         SUNNY     68  40  35 S15G23    30.00F
WOLF POINT     SUNNY     73  35  25 SW13G18   29.94F
GLENDIVE       SUNNY     65  40  39 S18G25    30.01F
MILES CITY     SUNNY     67  39  35 S12       29.99
BAKER          SUNNY     62  38  40 S21G28    30.07
$$

CITY           SKY/WX    TMP DP  RH WIND       PRES   REMARKS
BILLINGS       MOSUNNY   69  31  24 W10       29.98F
GREAT FALLS    SUNNY     64  29  26 W38G59    29.93F
REGINA         CLOUDY    66  43  42 SE17G23   29.92F
ESTEVAN        PTSUNNY   63  41  45 S16G26    30.01F
$$



 

View Past Reports for Bismarck, ND.

Products Courtesy of NOAA-NWS
NWS Information Parsing Script by Ken True at Saratoga Weather - Script by SE Lincoln Weather.